User: anonymous   Login
Location: Caltech
(34.1382°N, 118.1253°W)
Time: 14:19:34
(UTC-07:00)
Language:

FENGYUN 3A - Orbit

View from above orbital plane
View from above orbital plane
View from above satellite
View from above satellite

Ground track
Ground track

The orbit data is extracted from the following two-line orbital elements,

1 32958U 08026A   17114.50910717 -.00000040 +00000-0 +62222-6 0  9992
2 32958 098.4136 145.8597 0010947 078.6448 281.5965 14.19657871461722
Epoch (UTC): 24 April 2017 12:13:06
Eccentricity: 0.0010947
inclination: 98.4136°
perigee height: 818 km
apogee height: 834 km
right ascension of ascending node: 145.8597°
argument of perigee: 78.6448°
revolutions per day: 14.19657871
mean anomaly at epoch: 281.5965°
orbit number at epoch: 46172

The dashed part of the orbit path shows where the satellite is in the earth's shadow,  

DLR